Home   Weather   Dannenberg   Past weeks

Flag for Germany Past Weather in Dannenberg, Lower Saxony, Germany — Yesterday and Last 2 Weeks

Now
61 °F

Partly sunny.


Feels Like: 61 °F
Forecast: 53 / 67 °F
Wind: 9 mph from West

Location: Fassberg

Current Time: Aug 20, 2017 at 5:43:19 pm

Latest Report: Aug 20, 2017 at 4:20 pm


Visibility: N/A

Pressure: 30.12 "Hg

Humidity: 77%

Dew Point: 54 °F

Location of DannenbergLocation

Past Weather in Dannenberg — Graph

°F

Dannenberg Temperature Yesterday

Maximum temperature yesterday: 64 °F (at 11:20 am)
Minimum temperature yesterday: 54 °F (at 6:20 am)
Average temperature yesterday: 59 °F

High & Low Weather Summary for the Past Weeks

 TemperatureHumidityPressure
High81 °F (Aug 15, 6:20 pm)100% (Aug 7, 3:20 am)30.24 "Hg (Aug 7, 3:20 am)
Low41 °F (Aug 14, 5:32 am)33% (Aug 7, 5:20 pm)29.77 "Hg (Aug 8, 6:20 pm)
Average61 °F80%30.03 "Hg
* Reported Aug 5 4:20 pm — Aug 20 4:20 pm, Dannenberg. Weather by CustomWeather, © 2017

Note: Actual official high and low records may vary slightly from our data, if they occured in-between our weather recording intervals... More about our weather records

Advertising

Dannenberg Weather History for the Previous 24 Hours

Scroll right to see more
 ConditionsComfort  
Time TempWeatherWind HumidityBarometerVisibility
4:20 pm
Sun, Aug 20
61 °FPartly sunny.9 mph77%30.12 "HgN/A
3:20 pm61 °FBroken clouds.15 mph72%30.12 "HgN/A
2:20 pm64 °FSprinkles. Partly sunny.16 mph60%30.09 "HgN/A
1:20 pm64 °FScattered clouds.14 mph60%30.09 "HgN/A
12:20 pm64 °FScattered clouds.17 mph60%30.09 "HgN/A
11:20 am63 °FPartly sunny.18 mph64%30.09 "HgN/A
10:31 am61 °FScattered clouds.12 mph72%30.09 "HgN/A
9:20 am57 °FBroken clouds.14 mph82%30.09 "HgN/A
8:50 am57 °FBroken clouds.10 mph82%30.09 "Hg5 mi
8:20 am55 °FBroken clouds.8 mph88%30.09 "Hg4 mi
7:20 am54 °FPartly sunny.7 mph94%30.07 "Hg4 mi
6:20 am52 °FBroken clouds.8 mph94%30.07 "Hg4 mi
5:20 am52 °FFog.6 mph94%30.07 "Hg3 mi
4:20 am52 °FPassing clouds.8 mph94%30.07 "Hg4 mi
3:20 am52 °FFog.7 mph94%30.07 "Hg5 mi
2:20 am52 °FFog.8 mph94%30.04 "HgN/A
1:20 am52 °FFog.7 mph94%30.07 "HgN/A
12:20 am52 °FFog.6 mph100%30.07 "HgN/A
11:20 pm
Sat, Aug 19
54 °FPassing clouds.6 mph94%30.07 "HgN/A
10:20 pm54 °FPassing clouds.7 mph94%30.07 "HgN/A
9:20 pm55 °FPartly cloudy.5 mph88%30.04 "HgN/A
8:46 pm54 °FThunderstorms. Passing clouds.8 mph94%30.04 "HgN/A
8:20 pm61 °FThunderstorms. Partly sunny.7 mph77%30.01 "HgN/A
7:20 pm63 °FBroken clouds.12 mph68%30.01 "HgN/A
6:20 pm64 °FScattered clouds.13 mph68%29.98 "HgN/A
5:20 pm63 °FScattered clouds.14 mph77%30.01 "HgN/A
Weather by CustomWeather, © 2017

See weather overviewHow to use our weather pages